Location: Brunembert
(50.7122°N, 1.8935°E)
Time: 04:16:05
(UTC+00:00)

Cosmos 2227 Rocket - Pass Details

Date: 22 April 2021
Orbit: 840 x 844 km, 71.0° (Epoch: 06 May)

Event Time Altitude Azimuth Distance (km) Brightness Sun altitude
Rises 22:19:21 0° 246° (WSW) 3,397 5.4 -23.7°
Reaches altitude 10° 22:22:08 10° 258° (WSW) 2,465 4.7 -23.9°
Maximum altitude 22:26:59 29° 317° (NW) 1,523 4.1 -24.2°
Drops below altitude 10° 22:31:51 10° 16° (NNE) 2,473 5.3 -24.5°
Sets 22:34:40 0° 28° (NNE) 3,410 5.9 -24.6°
